DELTA 1 DEB, 10842

Orbit data source: Space-Track

DELTA 1 DEB, 10842 is space debris in SSO originally from a launch on Thu, 29 Jul 1976 UTC launched from the Air Force Western Test Range (AFWTR). Debris objects in space refer to the collection of defunct objects orbiting the Earth. Examples of debris include non-operational satellites, rocket bodies, and fragments generated from explosions, collisions, or faulty payload assembly.

Loading next visibility...
Identifier
10842, 1976-077CN
Orbit
SSO
Country
Flag of USUS
Related business
Manufacturer
Unknown
Mission
Spacecraft
Bus & Motor
Unknown
Mass
Unknown
Launch date (UTC)
1976-07-29 (50 years ago)
Launch vehicle
Unknown
Launch site
Air Force Western Test Range (AFWTR)
Object type
Payload
Rocket body
Debris
Shape & HBR
Unknown shape, 0.1 m
Radar Cross Section
Medium (>0.1 m² and <1 m²)

Expand to show TLE details & history
Last TLE update: 2 days ago

TLE from 2 days ago
0 DELTA 1 DEB
1 10842U 76077CN  26171.41591683  .00000020  00000-0  33917-3 0  9994
2 10842 102.2069 331.2460 0287521  43.0664 345.5638 12.58977710155073
Epoch: 2026-06-20T09:58Z
TLE epoch observation values (Epoch: 2026-06-20T09:58:55.214Z)
Latitude
27.13921°
Longitude
-93.44906°
Altitude
1,213.229 km
Speed
7.35 km/s
True Right ascension
21h 39m 38s
True Declination
27° 00' 30"
Sunlit
Object was in daylight at epoch
Visualization orbit readout
Latitude
Unknown
Longitude
Unknown
Altitude
Unknown
Speed
Unknown
Apparent Right ascension
Unknown
Apparent Declination
Unknown
Sunlit
N/A
Visualization observer readout
Local Sidereal Time
00:54:27
Azimuth
Unknown
Elevation
Unknown
Doppler factor
Unknown
Orbital elements
Apogee altitude
1,649.075 km
Perigee altitude
1,200.378 km
Semi-major axis
7,802.863 km
Eccentricity
0.02875
Inclination
102.2069°
RAAN
331.246°
Arg. of periapsis
43.0664°
True anomaly
344.71287°
Mean anomaly
345.5638°
Eccentric anomaly
345.14136°
Mean motion
3.14892 °/min
Orbital period
114.32 mins
BSTAR
0.00033917
Loading maneuver chart data...
Computing Atmospheric mass density...
Loading historical data...
Loading historical data...
Loading historical data...
Loading historical data...
Loading historical data...
Loading historical data...
Loading historical data...

Documentation

Showing up to 5 results
|